Погода в Плодопитомнике

Россия / Амурская область     50°18′23″N   127°29′22″E
темп.,
°C
ветер,
м/с
пор.,
м/с
влажн.,
%
обл.,
%
осадки,
мм/ч
давл.,
гПа
погр.,
м
12 мая, ср
ср1200:00+11юв71466100 0.0 1008506
03:00+10юв81672100 0.0 1006607
06:00+9вюв101977100 0.4 1002737
09:00+9юв111983100 1.7 10001122
12:00+14юв11156064 0.6 9961721
15:00+13ю101461100 1.1 9961543
18:00+13вюв6960100 0.5 9951218
21:00+10юв4787100 1.6 996416
13 мая, чт
чт1300:00+9юв238794 0.8 996152
03:00+9з369193 1.2 997341
06:00+9з5986100 0.7 998548
09:00+10з797996 1.1 1000705
12:00+12зсз7968100 0.3 10021256
15:00+12зсз8106798 0.3 10051280
18:00+12сз576733 0.0 1006851
21:00+8с348636 0.0 100765
14 мая, пт
пт1400:00+7ююв119086 0.0 100910
03:00+6юв2293100 0.0 100819
06:00+6юв2790100 0.0 1007217
09:00+11ююв5870100 0.0 1005451
12:00+16вюв2345100 0.0 1002506
15:00+13сз3769100 0.4 1002504
18:00+11ююз4784100 3.4 1001341
21:00+10ююз5989100 3.4 1001227
15 мая, сб
сб1500:00+8юз3593100 0.1 100191
03:00+6зсз22805 0.1 100112
06:00+7зюз410750 0.0 1000308
09:00+12з795281 0.0 10001545
12:00+12зсз51053100 0.0 10001852
15:00+11зсз91366100 0.3 10021462
18:00+11зсз71366100 0.1 10031656
21:00+12сз71363100 0.1 10041171
16 мая, вс
вс1600:00+11зсз61166100 0.0 1004658
03:00+8зсз613695 0.0 1005444
06:00+8зсз612665 0.0 1006564
09:00+13сз710495 0.0 10061357
12:00+18сз710355 0.0 10051951
15:00+20ссз69275 0.0 10042524
18:00+20ссз49270 0.0 10042750
21:00+15ююз33362 0.0 100414